EW1379 Weather Reports


Display with metric or nautical units.
time (UTC)temp
F
wind
direction
speed
MPH
gust
MPH
rain 1hr
in
rain 24hr
in
rain mn
in
humidity
%
barometer
mb
20260903182525 83 265 0.0 1.0 0.00 1.70 0.01 72 1012.8
20260903182054 83 265 0.0 4.0 0.00 1.70 0.01 70 1012.8
20260903181531 83 250 0.0 4.0 0.00 1.70 0.01 70 1012.7
20260903181050 83 260 0.0 3.0 0.00 1.70 0.01 72 1012.7
20260903180548 83 260 1.0 4.0 0.00 1.70 0.01 69 1012.8
20260903180034 83 273 1.0 6.0 0.00 1.70 0.01 73 1012.8
20260903175550 83 284 1.0 6.0 0.00 1.70 0.01 70 1012.8
20260903175041 83 274 1.0 3.0 0.00 1.70 0.01 71 1012.9
20260903174525 83 259 1.0 3.0 0.00 1.70 0.01 72 1012.9
20260903174037 83 268 0.0 8.0 0.00 1.70 0.01 71 1012.9
20260903173531 82 278 1.0 8.0 0.01 1.70 0.01 70 1012.9
20260903173039 82 246 0.0 6.0 0.01 1.70 0.01 71 1012.9
20260903172543 82 246 1.0 6.0 0.01 1.70 0.01 72 1012.9
20260903172045 82 261 2.0 6.0 0.01 1.70 0.01 69 1012.9
20260903171548 82 275 3.0 6.0 0.01 1.70 0.01 70 1013.1
20260903171031 82 277 1.0 4.0 0.01 1.70 0.01 70 1013.0
20260903170551 82 296 2.0 4.0 0.01 1.70 0.01 69 1013.1
20260903170031 81 290 1.0 4.0 0.01 1.70 0.01 74 1013.2
20260903165538 81 279 0.0 4.0 0.01 1.70 0.01 71 1013.2
20260903165021 81 278 1.0 4.0 0.01 1.70 0.01 72 1013.1
20260903164531 81 284 1.0 4.0 0.01 1.70 0.01 72 1013.1
20260903164108 81 273 0.0 2.0 0.01 1.70 0.01 72 1013.2
20260903163554 80 271 0.0 1.0 0.00 1.69 0.00 75 1013.2
20260903163026 80 271 0.0 2.0 0.00 1.69 0.00 73 1013.2
20260903162616 80 272 0.0 3.0 0.00 1.69 0.00 73 1013.4
20260903162026 79 272 1.0 4.0 0.00 1.69 0.00 74 1013.4
20260903161527 79 286 0.0 4.0 0.00 1.69 0.00 75 1013.4
20260903161030 79 286 2.0 4.0 0.00 1.69 0.00 74 1013.5
20260903160528 79 283 1.0 7.0 0.00 1.69 0.00 75 1013.7
20260903160030 79 247 0.0 4.0 0.00 1.69 0.00 77 1013.7
20260903155527 79 275 1.0 4.0 0.00 1.69 0.00 77 1013.8
20260903155034 78 281 0.0 3.0 0.00 1.69 0.00 79 1013.8
20260903154544 78 281 0.0 3.0 0.00 1.69 0.00 79 1013.8
20260903154036 77 274 1.0 5.0 0.00 1.69 0.00 82 1013.8
20260903153602 77 275 1.0 5.0 0.00 1.69 0.00 84 1013.9
20260903153026 77 261 0.0 4.0 0.00 1.69 0.00 88 1013.8
20260903152536 76 272 0.0 4.0 0.00 1.69 0.00 90 1013.8
20260903152027 76 272 1.0 4.0 0.00 1.69 0.00 92 1013.7
20260903151554 75 270 0.0 2.0 0.00 1.69 0.00 93 1013.8
20260903151050 75 269 0.0 4.0 0.00 1.69 0.00 94 1013.8
20260903150532 75 273 1.0 7.0 0.00 1.69 0.00 95 1013.9
20260903150034 75 284 2.0 7.0 0.00 1.69 0.00 95 1014.0
20260903145547 74 286 2.0 6.0 0.00 1.69 0.00 96 1014.0
20260903145032 74 267 0.0 4.0 0.00 1.69 0.00 96 1014.0
20260903144536 74 267 1.0 4.0 0.00 1.69 0.00 97 1014.0
20260903144105 73 273 1.0 4.0 0.00 1.69 0.00 97 1014.0
20260903143620 73 267 0.0 3.0 0.00 1.69 0.00 97 1013.9
20260903143029 73 275 1.0 3.0 0.00 1.69 0.00 96 1014.0
20260903142603 73 242 0.0 3.0 0.00 1.69 0.00 97 1014.0
20260903142036 73 281 0.0 2.0 0.00 1.69 0.00 97 1013.9
20260903141603 73 275 0.0 1.0 0.00 1.69 0.00 97 1013.9
20260903141048 73 275 0.0 1.0 0.00 1.69 0.00 97 1013.8
20260903140537 72 275 0.0 1.0 0.00 1.69 0.00 97 1013.7
20260903140036 72 284 0.0 1.0 0.00 1.69 0.00 97 1013.8
20260903135537 72 274 0.0 3.0 0.00 1.84 0.00 97 1013.8
20260903135047 72 274 0.0 3.0 0.00 1.84 0.00 97 1013.9
20260903134528 72 279 0.0 0.0 0.00 1.84 0.00 97 1013.9
20260903134041 72 279 0.0 0.0 0.00 1.84 0.00 97 1013.9
20260903133551 72 268 0.0 0.0 0.00 1.84 0.00 97 1013.9
20260903133039 72 268 0.0 0.0 0.00 1.84 0.00 97 1013.9
20260903132536 72 268 0.0 0.0 0.00 1.84 0.00 97 1013.9
20260903132027 71 231 0.0 0.0 0.00 1.84 0.00 97 1014.0
20260903131548 71 198 0.0 0.0 0.00 1.84 0.00 97 1014.0
20260903131045 71 198 0.0 0.0 0.00 1.84 0.00 97 1014.1
20260903130539 71 198 0.0 0.0 0.00 1.84 0.00 97 1014.1
20260903130040 70 198 0.0 0.0 0.00 1.84 0.00 97 1014.1
20260903125553 70 198 0.0 0.0 0.00 1.89 0.00 97 1014.1
20260903125044 70 198 0.0 0.0 0.00 1.89 0.00 97 1014.2
20260903124556 70 197 0.0 0.0 0.00 1.89 0.00 97 1014.2
20260903124033 70 197 0.0 0.0 0.00 1.89 0.00 97 1014.0
20260903123559 70 197 0.0 0.0 0.00 1.89 0.00 97 1014.0
20260903123036 70 197 0.0 0.0 0.00 1.89 0.00 97 1014.1
20260903122559 70 197 0.0 0.0 0.00 1.89 0.00 97 1014.1
20260903122048 70 197 0.0 0.0 0.00 1.89 0.00 97 1014.0
20260903121541 69 197 0.0 0.0 0.00 1.89 0.00 97 1013.9
20260903121051 69 197 0.0 0.0 0.00 1.89 0.00 97 1013.7
20260903120540 69 140 0.0 0.0 0.00 1.89 0.00 97 1013.6
20260903120047 69 140 0.0 0.0 0.00 1.89 0.00 97 1013.5
20260903115531 69 140 0.0 0.0 0.00 1.89 0.00 97 1013.6
20260903115055 69 140 0.0 0.0 0.00 1.89 0.00 97 1013.7
20260903114543 69 140 0.0 0.0 0.00 1.89 0.00 97 1013.6
20260903114037 69 140 0.0 0.0 0.00 1.89 0.00 97 1013.6
20260903113043 68 140 0.0 0.0 0.00 1.89 0.00 97 1013.3
20260903112549 68 140 0.0 0.0 0.00 1.89 0.00 97 1013.3
20260903112107 68 140 0.0 0.0 0.00 1.89 0.00 97 1013.2
20260903111600 68 140 0.0 0.0 0.00 1.89 0.00 96 1013.1
20260903111040 68 140 0.0 0.0 0.00 1.89 0.00 96 1013.2
20260903110602 67 140 0.0 0.0 0.00 1.89 0.00 96 1013.2
20260903110041 67 140 0.0 0.0 0.00 1.89 0.00 96 1013.1
20260903105537 67 140 0.0 0.0 0.00 1.89 0.00 96 1013.0
20260903105027 67 140 0.0 0.0 0.00 1.89 0.00 96 1013.0
20260903104547 67 140 0.0 0.0 0.00 1.89 0.00 96 1012.9
20260903104038 67 140 0.0 0.0 0.00 1.89 0.00 96 1012.9
20260903103522 67 140 0.0 0.0 0.00 1.89 0.00 96 1012.8
20260903103053 67 140 0.0 0.0 0.00 1.89 0.00 96 1012.8
20260903102538 67 140 0.0 0.0 0.00 1.89 0.00 96 1012.7
20260903102029 68 140 0.0 0.0 0.00 1.89 0.00 96 1012.7
20260903101533 68 140 0.0 0.0 0.00 1.89 0.00 96 1012.5
20260903101031 68 140 0.0 0.0 0.00 1.89 0.00 96 1012.6
20260903100541 68 140 0.0 0.0 0.00 1.89 0.00 96 1012.6
20260903100039 68 140 0.0 0.0 0.00 1.89 0.00 96 1012.7
20260903095543 68 140 0.0 0.0 0.00 1.89 0.00 96 1012.6
20260903095037 68 140 0.0 0.0 0.00 1.89 0.00 96 1012.7
20260903094541 68 140 0.0 0.0 0.00 1.89 0.00 96 1012.7
20260903094049 68 140 0.0 0.0 0.00 1.89 0.00 96 1012.7
20260903093530 68 140 0.0 0.0 0.00 1.89 0.00 96 1012.6
20260903093035 68 140 0.0 0.0 0.00 1.89 0.00 96 1012.6
20260903092526 68 140 0.0 0.0 0.00 1.89 0.00 96 1012.6
20260903092028 68 140 0.0 0.0 0.00 1.89 0.00 96 1012.7
20260903091526 68 140 0.0 0.0 0.00 1.89 0.00 96 1012.7
20260903091029 68 140 0.0 0.0 0.00 1.89 0.00 96 1012.7
20260903090536 68 140 0.0 0.0 0.00 1.89 0.00 96 1012.8
20260903090026 68 140 0.0 0.0 0.00 1.89 0.00 96 1012.8
20260903085531 68 140 0.0 0.0 0.00 1.89 0.00 96 1012.7
20260903085059 68 140 0.0 0.0 0.00 1.89 0.00 96 1012.7
20260903084526 68 140 0.0 0.0 0.00 1.89 0.00 96 1012.7
20260903084044 68 140 0.0 0.0 0.00 1.89 0.00 96 1012.7
20260903083550 68 140 0.0 0.0 0.00 1.89 0.00 96 1012.6
20260903083051 68 140 0.0 0.0 0.00 1.89 0.00 96 1012.5
20260903082544 68 140 0.0 0.0 0.00 1.89 0.00 96 1012.4
20260903082104 68 140 0.0 0.0 0.00 1.89 0.00 96 1012.4
20260903081550 68 140 0.0 0.0 0.00 1.89 0.00 96 1012.5
20260903081051 68 140 0.0 0.0 0.00 1.89 0.00 96 1012.6
20260903080535 68 140 0.0 0.0 0.00 1.89 0.00 96 1012.4
20260903080053 69 140 0.0 0.0 0.00 1.89 0.00 96 1012.4
20260903075549 69 140 0.0 0.0 0.00 1.89 0.00 96 1012.4
20260903075033 69 140 0.0 0.0 0.00 1.89 0.00 96 1012.4
20260903074534 69 140 0.0 0.0 0.00 1.89 0.00 96 1012.4
20260903074057 69 140 0.0 0.0 0.00 1.89 0.00 96 1012.4
20260903073529 69 140 0.0 0.0 0.00 1.89 0.00 96 1012.4
20260903073045 69 141 0.0 0.0 0.00 1.89 0.00 96 1012.5
20260903072531 69 208 0.0 0.0 0.00 1.89 0.00 96 1012.5
20260903072029 69 208 0.0 0.0 0.00 1.89 0.00 96 1012.7
20260903071525 69 208 0.0 0.0 0.00 1.89 0.00 96 1012.7
20260903071033 69 208 0.0 0.0 0.00 1.89 0.00 96 1012.6
20260903070529 69 208 0.0 0.0 0.00 1.89 0.00 96 1012.6
20260903070033 69 208 0.0 0.0 0.00 1.89 0.00 96 1012.5
20260903065550 69 208 0.0 0.0 0.00 1.89 0.00 96 1012.5
20260903065026 69 208 0.0 0.0 0.00 1.89 0.00 96 1012.6
20260903064553 69 208 0.0 0.0 0.00 1.89 0.00 96 1012.7
20260903064030 69 208 0.0 0.0 0.00 1.89 0.00 96 1012.6
20260903063554 69 208 0.0 0.0 0.00 1.89 0.00 96 1012.6
20260903063038 69 208 0.0 0.0 0.00 1.89 0.00 96 1012.5
20260903062540 69 208 0.0 0.0 0.00 1.89 0.00 96 1012.5
20260903062031 69 208 0.0 0.0 0.00 1.89 0.00 96 1012.6
20260903061539 69 208 0.0 0.0 0.00 1.89 0.00 96 1012.7
20260903061045 69 208 0.0 0.0 0.00 1.89 0.00 96 1012.7
20260903060526 69 208 0.0 0.0 0.00 1.89 0.00 96 1012.8
20260903060044 69 208 0.0 0.0 0.00 1.89 0.00 96 1012.7
20260903055532 69 208 0.0 0.0 0.00 1.89 0.00 96 1012.7
20260903055030 69 208 0.0 0.0 0.00 1.89 0.00 96 1012.9
20260903054554 69 208 0.0 0.0 0.00 1.89 0.00 96 1012.7
20260903054048 69 208 0.0 0.0 0.00 1.89 0.00 96 1012.7
20260903053533 69 208 0.0 0.0 0.00 1.89 0.00 95 1012.6
20260903053034 69 208 0.0 0.0 0.00 1.89 0.00 96 1012.4
20260903052534 69 208 0.0 0.0 0.00 1.89 0.00 95 1012.3
20260903052032 69 208 0.0 0.0 0.00 1.89 0.00 95 1012.3
20260903051557 69 208 0.0 0.0 0.00 1.89 0.00 95 1012.4
20260903051035 69 208 0.0 0.0 0.00 1.89 0.00 96 1012.5
20260903050409 69 208 0.0 0.0 0.00 1.89 0.00 96 1012.3
20260903045919 69 208 0.0 0.0 0.00 1.89 0.00 96 1012.2
20260903045411 69 208 0.0 0.0 0.00 1.89 0.00 96 1012.1
20260903044913 69 208 0.0 0.0 0.00 1.89 0.00 95 1012.1
20260903044435 69 208 0.0 0.0 0.00 1.89 0.00 96 1012.2
20260903043911 69 208 0.0 0.0 0.00 1.89 0.00 96 1012.1
20260903043439 69 208 0.0 0.0 0.00 1.89 0.00 95 1012.1
20260903042914 69 208 0.0 0.0 0.00 1.89 0.00 95 1012.1
20260903042415 69 208 0.0 0.0 0.00 1.89 0.00 95 1011.8
20260903041909 69 208 0.0 0.0 0.00 1.89 0.00 95 1012.0
20260903041414 69 208 0.0 0.0 0.00 1.89 0.00 95 1011.9
20260903040922 69 208 0.0 0.0 0.00 1.89 0.00 95 1011.8
20260903040415 69 208 0.0 0.0 0.00 1.89 0.00 95 1011.8
20260903035905 69 208 0.0 0.0 0.01 1.89 1.89 95 1012.0
20260903035416 69 208 0.0 0.0 0.01 1.89 1.89 95 1012.0
20260903034916 69 208 0.0 0.0 0.02 1.89 1.89 95 1012.1
20260903034421 69 208 0.0 0.0 0.02 1.89 1.89 95 1012.2
20260903033927 69 208 0.0 0.0 0.03 1.89 1.89 95 1012.4
20260903033419 70 208 0.0 0.0 0.03 1.89 1.89 95 1012.4
20260903032919 70 208 0.0 0.0 0.03 1.89 1.89 95 1012.5
20260903032425 70 208 0.0 0.0 0.03 1.89 1.89 95 1012.5
20260903031943 69 208 0.0 0.0 0.03 1.89 1.89 95 1012.5
20260903031427 69 208 0.0 0.0 0.03 1.89 1.89 95 1012.7
20260903030917 69 208 0.0 0.0 0.03 1.89 1.89 95 1012.5
20260903030424 69 208 0.0 0.0 0.04 1.89 1.89 95 1012.8
20260903025949 69 208 0.0 0.0 0.04 1.88 1.88 95 1013.0
20260903025419 69 208 0.0 0.0 0.04 1.88 1.88 95 1012.8
20260903024938 69 209 0.0 0.0 0.03 1.87 1.87 95 1012.9
20260903024411 69 165 0.0 0.0 0.03 1.87 1.87 95 1012.9
20260903023932 69 163 0.0 0.0 0.02 1.86 1.86 95 1013.2
20260903023456 69 163 0.0 0.0 0.02 1.86 1.86 95 1013.9
20260903022923 69 163 0.0 0.0 0.02 1.86 1.86 95 1013.9
20260903022433 69 163 0.0 0.0 0.03 1.86 1.86 95 1013.4
20260903021939 69 148 0.0 1.0 0.03 1.86 1.86 95 1012.4
20260903021419 69 148 0.0 1.0 0.03 1.86 1.86 95 1012.4
20260903020912 69 157 0.0 0.0 0.03 1.85 1.85 95 1012.9
20260903020424 69 148 0.0 0.0 0.03 1.85 1.85 95 1013.4
20260903015926 69 148 0.0 0.0 0.04 1.84 1.84 95 1013.2
20260903015423 69 148 0.0 0.0 0.04 1.84 1.84 95 1013.2
20260903014912 69 148 0.0 0.0 0.05 1.84 1.84 94 1013.1
20260903014458 69 148 0.0 0.0 0.06 1.84 1.84 94 1013.3
20260903013916 69 148 0.0 0.0 0.06 1.84 1.84 94 1013.6
20260903013442 69 148 0.0 0.0 0.07 1.84 1.84 94 1013.8
20260903012912 69 148 0.0 0.0 0.07 1.84 1.84 94 1013.6
20260903012439 69 148 0.0 0.0 0.07 1.83 1.83 94 1013.7
20260903011931 69 150 0.0 0.0 0.08 1.83 1.83 94 1014.0
20260903011417 69 150 0.0 0.0 0.13 1.83 1.83 94 1014.1
20260903010910 70 150 0.0 0.0 0.20 1.82 1.82 94 1014.0
20260903010444 70 140 0.0 0.0 0.31 1.82 1.82 94 1014.7
20260903005928 70 140 0.0 0.0 0.43 1.80 1.80 94 1014.9
20260903005422 70 140 0.0 0.0 0.65 1.79 1.79 94 1014.8
20260903004933 70 140 0.0 0.0 0.90 1.79 1.79 94 1014.5
20260903004435 70 140 0.0 0.0 0.90 1.78 1.78 94 1014.5
20260903003905 70 140 0.0 5.0 0.91 1.78 1.78 94 1013.8
20260903003415 70 140 0.0 5.0 1.01 1.77 1.77 94 1013.1
20260903002415 70 339 2.0 18.0 1.19 1.76 1.76 94 1013.8
20260903001918 70 38 11.0 18.0 1.20 1.75 1.75 93 1013.8
20260903001444 70 333 5.0 23.0 1.25 1.69 1.69 93 1015.0
20260903000921 69 313 8.0 23.0 1.28 1.60 1.61 92 1015.6
20260903000439 70 263 5.0 23.0 1.29 1.49 1.49 91 1014.6
20260902235943 71 286 7.0 27.0 1.16 1.36 1.36 89 1013.7
20260902235417 73 254 8.0 27.0 0.88 1.08 1.08 87 1013.5
20260902234910 75 291 6.0 15.0 0.68 0.88 0.88 88 1014.1
20260902234422 75 134 0.0 10.0 0.68 0.88 0.88 87 1011.0
20260902233931 76 101 4.0 7.0 0.67 0.87 0.87 86 1011.1
20260902233410 77 167 0.0 2.0 0.53 0.73 0.73 84 1012.1
20260902232919 78 167 0.0 2.0 0.43 0.63 0.63 84 1012.4
20260902232433 79 190 0.0 3.0 0.37 0.57 0.57 84 1012.8
20260902231911 79 190 0.0 4.0 0.34 0.54 0.54 84 1012.9
20260902231438 81 153 0.0 2.0 0.24 0.44 0.44 85 1013.3
20260902230918 81 140 0.0 0.0 0.09 0.29 0.29 83 1012.2
20260902230415 82 140 0.0 0.0 0.00 0.20 0.20 82 1011.9
20260902225921 82 140 0.0 0.0 0.00 0.20 0.20 82 1011.9
20260902225425 82 140 0.0 3.0 0.00 0.20 0.20 81 1012.3
20260902224937 82 140 1.0 3.0 0.00 0.20 0.20 81 1011.7
20260902224415 83 140 0.0 0.0 0.00 0.20 0.20 81 1011.9
20260902223953 83 140 0.0 0.0 0.00 0.20 0.20 81 1011.9
20260902223416 83 140 0.0 0.0 0.00 0.20 0.20 80 1012.0
20260902222936 83 140 0.0 0.0 0.00 0.20 0.20 80 1012.0
20260902222433 83 140 0.0 0.0 0.00 0.20 0.20 80 1011.7
20260902221918 83 140 0.0 0.0 0.00 0.20 0.20 80 1011.7
20260902221426 84 140 0.0 0.0 0.00 0.20 0.20 79 1011.9
20260902220938 84 140 0.0 0.0 0.00 0.20 0.20 79 1012.0
20260902220410 84 140 0.0 0.0 0.00 0.20 0.20 79 1012.2
20260902215947 84 140 0.0 0.0 0.00 0.20 0.20 78 1012.1
20260902215428 84 140 0.0 0.0 0.00 0.20 0.20 78 1012.0
20260902214924 84 140 0.0 0.0 0.00 0.20 0.20 78 1011.9
20260902214438 84 140 0.0 0.0 0.00 0.20 0.20 79 1012.1
20260902213915 84 140 0.0 0.0 0.00 0.20 0.20 78 1012.3
20260902213417 85 140 0.0 0.0 0.00 0.20 0.20 77 1012.3
20260902212933 85 140 0.0 0.0 0.00 0.20 0.20 77 1012.3
20260902212405 85 140 0.0 4.0 0.00 0.20 0.20 77 1012.5
20260902211933 85 140 0.0 4.0 0.00 0.20 0.20 77 1012.3
20260902211427 85 144 0.0 2.0 0.00 0.20 0.20 76 1012.4
20260902210934 85 211 0.0 0.0 0.00 0.20 0.20 75 1012.8
20260902210414 85 211 0.0 0.0 0.00 0.20 0.20 74 1012.9
20260902205909 85 211 0.0 0.0 0.00 0.20 0.20 76 1013.2
20260902205417 85 211 0.0 0.0 0.00 0.20 0.20 76 1013.4
20260902204912 85 211 0.0 2.0 0.00 0.20 0.20 76 1013.5
20260902204443 85 211 0.0 2.0 0.00 0.20 0.20 77 1013.6
20260902203935 85 211 1.0 2.0 0.00 0.20 0.20 76 1013.6
20260902203412 85 219 0.0 2.0 0.00 0.20 0.20 77 1013.5
20260902202911 85 218 0.0 2.0 0.00 0.20 0.20 77 1013.8
20260902202417 85 241 1.0 3.0 0.00 0.20 0.20 77 1013.9
20260902201910 85 213 0.0 3.0 0.00 0.20 0.20 76 1013.9
20260902201420 85 254 0.0 0.0 0.00 0.20 0.20 77 1013.9
20260902200912 85 254 0.0 2.0 0.00 0.20 0.20 77 1013.9
20260902200446 85 254 0.0 2.0 0.00 0.20 0.20 78 1014.0
20260902195937 85 246 0.0 5.0 0.00 0.20 0.20 77 1014.0
20260902195427 85 246 0.0 5.0 0.00 0.20 0.20 76 1013.9
20260902194916 85 136 0.0 0.0 0.00 0.20 0.20 77 1014.0
20260902194422 85 136 0.0 0.0 0.00 0.20 0.20 76 1013.9
20260902193927 85 136 0.0 2.0 0.00 0.20 0.20 76 1014.0
20260902193412 85 136 0.0 2.0 0.00 0.20 0.20 76 1013.9
20260902192917 85 122 0.0 2.0 0.00 0.20 0.20 76 1013.8
20260902192425 85 122 0.0 1.0 0.00 0.20 0.20 76 1013.7
20260902191913 85 122 0.0 0.0 0.00 0.20 0.20 76 1013.5
20260902191413 85 122 0.0 1.0 0.00 0.20 0.20 75 1013.5
20260902190909 85 121 0.0 1.0 0.00 0.20 0.20 75 1013.3
20260902190412 85 121 0.0 1.0 0.00 0.20 0.20 76 1013.4
20260902185916 85 121 0.0 5.0 0.00 0.20 0.20 75 1013.4
20260902185411 85 121 0.0 5.0 0.00 0.20 0.20 75 1013.5
20260902184921 85 132 0.0 0.0 0.00 0.20 0.20 75 1013.4
20260902184434 85 132 0.0 0.0 0.00 0.20 0.20 75 1013.4
20260902183925 85 132 0.0 0.0 0.00 0.20 0.20 75 1013.5
20260902183448 85 132 0.0 0.0 0.00 0.20 0.20 75 1013.6
20260902182926 85 132 0.0 4.0 0.00 0.20 0.20 76 1013.7